Temperature
15 14 13 13 13 13 12 12 11 10 10 9 9 9 8 8 8 8 8 8 8 7 8 8 8 8 8 9 10 10 11 11 11 11 10 10 9 9 10 10 11 11 11
17 15 14 13 13 13 13 12 11 11 10 9 9 9 8 8 8 8 8 7 7 7 7 7 7 8 8 8 9 9 10 11 11 10 10 10 9 9 9 9 9 9 10
17 16 14 14 13 13 13 12 12 11 10 10 9 9 8 8 8 8 8 7 7 7 7 7 7 8 8 8 8 9 10 10 10 10 10 10 9 8 8 8 8 8 9
17 16 15 14 13 13 13 13 12 12 11 10 9 9 9 8 8 8 8 8 8 8 8 7 8 8 8 8 8 9 10 10 10 9 9 9 8 7 7 7 8 8 8
17 16 15 14 14 13 13 13 13 12 11 10 9 9 9 8 8 8 8 8 8 8 8 8 8 8 8 8 8 9 9 9 9 9 9 8 7 7 7 7 7 7 7
18 16 15 14 14 13 13 13 13 12 11 10 10 9 9 9 9 9 9 9 9 9 9 8 8 8 8 8 8 9 9 9 9 9 9 8 7 6 6 6 6 6 6
18 17 15 14 13 13 13 13 13 12 11 11 10 10 9 9 9 9 9 9 9 9 9 9 9 9 9 9 9 9 9 9 9 9 9 8 7 6 6 6 6 6 6
18 17 15 14 13 13 13 13 12 12 12 11 10 10 9 9 9 9 9 9 9 9 9 9 9 9 9 9 9 9 9 9 9 9 8 8 7 6 6 6 6 6 6
17 17 16 14 13 12 12 12 12 12 12 11 11 10 10 10 10 10 10 10 9 9 9 9 9 9 9 9 9 9 9 9 9 8 8 8 7 6 6 6 6 6 6
16 16 15 14 13 13 12 12 12 12 11 11 11 11 11 10 10 10 10 10 10 9 9 9 9 9 9 9 9 9 9 8 8 8 8 8 8 7 7 7 7 6 6
15 15 15 14 14 13 12 11 11 11 11 11 11 11 11 11 11 10 10 10 10 10 9 9 9 9 9 9 9 9 8 8 8 8 8 8 8 7 7 7 7 7 6
16 16 15 14 14 13 12 11 11 11 11 11 11 11 11 11 11 10 10 10 10 10 9 9 9 9 9 9 9 9 9 8 8 8 8 8 8 8 7 7 7 7 6
17 16 16 15 13 13 12 12 11 11 11 11 11 11 11 11 11 11 11 10 10 10 10 9 9 9 9 9 9 9 8 8 8 8 8 8 8 7 7 7 7 6 6
17 16 16 15 14 13 12 12 12 11 12 12 12 12 11 11 11 11 11 10 10 10 9 9 9 9 9 9 9 8 8 8 8 8 8 7 7 7 7 7 6 6 6
17 16 16 15 15 14 13 12 11 11 12 12 12 12 11 11 11 11 10 10 10 10 9 9 9 9 9 9 8 8 8 8 8 8 7 7 7 7 7 7 6 6 5
17 17 16 16 15 14 13 13 12 12 12 11 11 11 11 11 11 10 10 10 10 9 9 9 8 8 8 8 8 8 8 8 8 8 7 7 7 7 7 6 6 6 5
18 17 16 16 15 14 14 13 12 12 12 11 11 11 11 11 11 10 10 10 10 9 9 8 8 8 8 8 8 8 8 8 7 7 7 7 7 6 6 6 6 6 5
18 17 16 15 14 14 13 13 12 12 11 11 11 11 11 10 10 10 10 10 9 9 8 8 8 8 8 8 8 8 7 7 7 7 7 7 7 6 6 6 6 6 5
18 17 16 15 15 14 13 12 12 11 11 11 10 10 10 10 10 10 10 10 9 8 8 8 8 8 8 8 7 7 7 7 7 7 7 7 6 6 6 6 5 5 5
18 17 16 15 14 14 12 11 11 10 10 10 10 10 9 9 9 9 9 9 8 8 8 8 8 7 7 7 7 6 7 7 7 7 7 7 6 6 6 6 5 5 5
18 17 16 15 15 13 12 12 11 11 11 10 10 10 9 9 8 8 8 8 7 7 7 7 7 7 7 6 6 6 6 6 7 7 7 7 7 7 6 6 5 5 5
17 16 16 15 15 14 13 13 12 11 11 10 10 9 9 8 8 7 7 7 7 7 7 6 6 6 6 6 5 5 4 6 7 7 8 7 7 7 6 6 5 5 5
16 15 15 15 14 14 13 12 12 11 10 10 10 9 9 9 8 7 7 7 6 6 6 6 6 6 5 5 5 4 4 4 6 6 6 7 7 6 6 6 5 5 4
15 15 14 14 13 13 12 12 11 11 11 11 10 10 9 8 8 7 7 6 6 6 5 5 5 5 5 4 4 4 4 4 3 4 5 5 5 5 5 5 5 4 4
14 14 14 13 13 12 12 11 11 11 10 10 10 9 9 8 8 7 7 6 6 6 5 5 5 4 4 4 4 3 3 3 2 1 1 3 3 3 4 4 4 3 3
14 14 13 13 12 12 11 11 10 10 10 9 9 9 8 8 8 7 7 6 6 5 5 5 5 4 4 4 3 3 2 2 1 1 0 1 1 2 2 2 2 2 2
Wind_Speed
10 21 26 24 23 21 19 18 16 15 14 13 13 12 12 12 12 13 13 13 14 14 15 16 16 16 16 16 17 17 18 18 19 20 20 20 20 20 20 20 19 19 21
16 28 28 26 25 23 21 19 18 17 15 14 13 13 13 12 12 12 12 13 13 13 14 14 15 15 15 15 16 16 17 17 17 18 18 18 17 19 19 19 19 18 20
20 29 29 28 26 24 22 21 19 18 17 15 14 13 13 12 12 12 12 12 12 12 13 13 14 14 14 14 15 15 16 16 16 17 17 17 15 18 18 18 18 18 19
24 28 28 29 27 25 23 22 21 19 18 16 15 14 14 13 12 12 12 11 11 12 12 12 13 13 13 13 13 14 15 15 15 15 17 16 13 15 16 17 17 17 17
23 26 28 30 28 26 24 23 21 20 19 18 16 15 14 14 13 12 12 11 11 11 11 11 11 12 12 12 12 13 13 13 13 14 16 16 13 13 15 15 16 16 16
19 25 28 30 28 26 25 24 22 21 20 19 17 16 15 14 13 13 12 11 11 10 10 10 10 10 10 10 10 11 12 11 10 12 14 14 12 12 14 14 14 14 15
17 24 27 29 28 27 25 24 23 22 21 20 18 17 16 15 14 13 12 11 10 10 9 9 9 8 9 9 9 10 10 10 8 8 11 13 10 11 12 12 12 13 13
19 24 25 29 28 27 26 25 24 23 21 20 19 18 17 16 15 14 13 12 11 10 9 8 7 7 7 7 7 8 9 8 7 4 7 10 8 10 10 10 11 11 11
19 21 21 25 27 27 26 25 24 23 22 21 20 19 18 17 16 15 14 13 11 10 9 8 7 6 5 5 6 6 8 8 7 4 4 7 6 8 9 9 9 10 10
12 15 18 20 23 24 25 25 25 24 23 22 21 20 19 18 17 16 15 14 13 11 10 9 7 6 5 4 4 5 6 7 6 3 2 4 5 6 7 7 8 8 8
13 12 16 17 19 21 22 24 25 24 23 23 21 21 19 17 17 16 15 15 14 13 11 10 8 7 6 5 4 5 5 6 6 3 2 2 3 4 5 5 6 6 7
19 17 13 16 17 19 21 21 21 21 22 22 20 20 19 17 16 15 16 16 15 14 13 11 10 9 7 6 6 5 6 6 6 5 4 2 2 3 3 4 4 5 6
18 17 17 16 19 19 17 17 16 18 18 19 20 20 19 17 16 15 15 15 15 15 12 11 9 8 8 8 8 7 8 8 8 7 6 5 3 3 3 3 4 4 5
13 18 17 16 17 19 19 16 15 15 16 16 20 22 19 15 14 14 14 15 14 14 13 12 10 10 11 12 11 11 11 10 10 10 9 7 6 6 5 5 5 5 5
15 18 17 16 16 18 17 16 17 16 17 18 20 22 22 17 13 14 15 16 16 16 15 14 13 12 12 13 14 13 13 13 13 13 12 10 10 9 8 8 7 7 7
20 19 17 19 18 17 16 15 15 18 18 19 20 22 23 21 17 15 14 15 17 18 18 16 15 13 12 12 12 14 15 15 15 15 15 14 13 12 11 11 10 10 9
19 17 18 18 16 16 15 16 18 19 20 20 21 23 24 23 20 18 14 14 17 19 18 16 15 13 10 10 9 14 15 16 16 17 18 17 17 15 15 14 13 12 12
14 15 17 17 17 17 15 15 16 19 20 20 21 22 24 25 23 19 15 14 18 18 16 11 8 6 7 7 7 8 12 14 17 19 19 19 19 18 18 17 16 15 15
15 14 16 16 17 17 14 13 14 16 18 20 21 21 23 25 25 22 17 17 18 15 14 11 8 7 8 8 8 7 7 9 13 17 17 20 21 21 21 20 19 19 17
12 13 14 15 15 13 10 8 8 9 10 16 19 21 22 23 25 23 18 16 17 10 9 8 9 8 7 7 9 9 8 9 12 13 17 19 21 22 22 21 21 20 19
9 11 13 15 14 11 8 10 10 13 10 8 14 19 22 23 23 22 16 14 14 11 13 12 9 9 9 4 4 6 6 10 14 13 15 15 18 21 22 22 21 21 20
6 8 10 12 13 13 13 12 7 7 7 8 9 14 20 22 22 22 18 12 12 11 12 12 11 8 7 7 6 3 5 6 9 15 13 14 14 17 18 22 21 21 21
2 6 9 11 12 12 11 6 3 2 2 4 7 8 14 21 22 22 20 17 13 13 14 15 14 13 11 9 8 6 5 8 4 4 9 12 12 11 12 17 21 22 22
3 2 4 6 8 9 9 8 10 10 12 12 10 10 10 17 20 22 21 19 15 14 16 16 15 14 13 12 8 10 9 5 4 5 4 6 9 12 12 13 17 21 23
5 2 1 1 4 6 8 11 11 13 13 9 7 9 11 11 16 20 21 18 16 15 17 16 15 16 15 16 12 7 11 10 9 7 10 5 4 7 10 10 12 16 21
6 5 3 1 2 4 7 9 11 14 13 11 10 10 10 10 11 14 16 16 16 15 17 17 17 18 17 17 16 12 9 8 9 11 17 13 8 6 8 9 11 14 19
Wind_Direction
186 179 176 170 168 166 164 161 157 152 147 141 135 129 123 116 110 105 100 96 90 85 81 80 79 76 74 73 72 72 70 67 61 55 50 57 66 65 64 64 60 54 55
166 174 175 172 170 169 167 165 161 156 153 148 142 137 131 125 118 112 106 101 95 90 86 82 80 78 75 74 75 75 74 71 65 56 47 40 55 66 63 61 61 58 56
161 171 174 173 172 172 169 167 164 161 158 155 151 146 139 134 127 121 114 107 102 96 91 87 83 80 77 76 77 77 77 74 66 54 39 27 37 64 63 61 60 57 55
163 170 173 175 174 174 171 169 167 165 163 161 157 152 148 143 137 130 123 116 110 103 97 91 87 83 80 77 78 80 79 75 65 47 30 22 27 62 62 60 59 57 55
166 171 174 177 176 175 174 172 171 169 167 165 162 159 155 151 145 139 133 126 119 113 105 97 91 87 83 80 81 84 83 77 64 40 27 19 21 59 63 60 58 57 55
169 172 177 179 179 178 177 175 174 173 171 170 168 165 162 159 154 149 143 137 131 124 116 107 98 92 86 83 84 89 90 83 64 41 24 16 16 57 62 59 58 56 54
169 173 180 181 182 181 180 179 178 177 176 174 173 172 169 166 162 157 153 149 144 137 129 120 110 101 94 89 88 94 99 97 80 45 19 8 18 58 59 56 54 54 53
169 174 183 185 185 184 184 183 182 181 180 179 178 177 175 172 169 167 165 161 157 151 144 135 125 114 104 98 96 101 107 108 102 60 13 1 30 56 57 54 51 49 48
170 175 185 188 188 188 188 187 186 185 185 184 183 182 181 179 178 176 174 172 169 165 161 155 146 136 123 114 110 113 117 118 119 96 9 353 34 51 53 50 46 45 43
173 181 188 190 188 189 191 192 190 190 189 189 188 187 186 186 186 185 182 181 180 179 177 174 171 167 157 144 135 130 127 131 137 132 4 347 31 41 46 45 40 37 36
185 190 190 191 188 189 190 195 194 194 194 193 192 192 191 190 191 190 185 190 190 190 190 190 191 192 193 194 187 162 149 156 165 178 265 328 21 26 32 34 30 26 25
192 194 192 191 188 187 192 197 195 194 196 195 193 192 189 186 188 189 191 199 200 199 200 203 205 208 209 216 225 197 178 182 188 201 237 280 333 352 4 10 10 8 9
194 192 195 194 189 188 192 194 193 192 193 192 190 188 184 184 189 196 200 210 209 205 204 210 217 214 218 224 227 217 208 205 208 214 232 255 275 298 315 325 333 338 343
191 197 195 193 191 192 192 193 192 190 191 191 190 187 182 184 192 199 206 212 209 202 200 209 219 225 231 233 231 227 223 220 221 224 234 248 259 270 282 288 294 301 309
197 197 196 193 194 193 193 195 197 197 196 194 192 192 190 190 196 202 209 211 211 207 205 210 219 228 235 238 236 232 228 227 228 229 234 244 252 259 266 271 276 281 287
206 201 194 196 196 193 197 200 201 201 199 196 198 199 197 198 199 201 206 210 213 213 213 213 217 222 231 234 236 234 232 232 233 233 236 241 248 254 258 263 267 270 274
209 202 197 197 195 196 199 201 203 202 201 204 206 204 204 204 203 202 207 212 215 216 216 218 222 225 231 233 237 237 236 235 235 236 237 239 243 249 254 257 260 263 267
207 202 200 199 197 200 202 201 204 203 204 209 208 207 209 209 207 205 210 215 214 211 211 212 214 216 228 229 233 237 237 237 238 238 238 238 239 241 246 252 255 258 261
205 199 198 200 198 200 200 200 202 202 207 210 209 210 211 211 209 209 214 216 209 207 210 217 213 210 223 229 235 241 240 240 240 241 238 237 237 238 240 245 251 253 256
199 197 199 201 202 195 190 191 196 205 210 210 211 213 210 211 210 211 217 214 206 206 213 214 217 213 220 224 241 250 244 241 241 239 240 239 236 235 236 237 242 247 252
188 193 197 200 200 188 187 196 204 215 213 211 213 213 211 211 209 211 218 212 208 215 219 215 215 220 226 196 230 273 267 244 243 241 237 236 235 232 231 231 233 236 242
195 202 202 203 199 197 204 204 204 209 212 214 216 215 213 213 212 215 217 216 211 218 221 216 211 218 220 190 190 220 287 289 243 238 232 231 233 230 229 230 228 229 231
226 215 211 208 204 204 202 189 183 177 253 216 219 221 217 216 216 219 219 219 216 216 225 222 215 216 226 211 198 186 211 247 292 258 234 231 228 224 227 228 227 228 228
299 264 233 215 208 204 192 192 198 211 225 226 224 225 218 216 219 220 222 220 220 221 226 224 219 219 220 226 215 221 224 197 230 292 268 239 229 226 225 226 228 227 227
359 1 324 227 215 204 199 204 211 227 236 240 231 229 227 223 222 223 222 223 224 225 227 225 221 218 220 227 221 211 228 236 232 247 272 272 258 236 227 224 225 226 226
12 20 22 2 261 221 212 216 220 232 240 245 241 238 238 234 229 226 224 225 227 229 228 227 225 222 223 225 226 220 211 214 217 223 245 254 248 237 228 225 224 227 228
Height
1553 1555 1558 1561 1563 1564 1565 1566 1567 1567 1567 1568 1568 1568 1567 1567 1567 1567 1567 1566 1566 1565 1565 1564 1563 1561 1560 1560 1559 1559 1558 1558 1558 1558 1558 1558 1558 1557 1557 1556 1555 1555 1555
1551 1553 1556 1558 1561 1563 1564 1565 1566 1566 1566 1567 1567 1567 1567 1567 1567 1567 1567 1566 1566 1565 1565 1564 1563 1562 1561 1560 1560 1559 1559 1559 1559 1559 1558 1558 1559 1559 1558 1557 1557 1556 1556
1549 1551 1554 1556 1559 1561 1562 1564 1564 1565 1565 1566 1566 1567 1567 1567 1567 1567 1567 1566 1566 1566 1565 1565 1564 1563 1562 1561 1561 1560 1560 1560 1559 1559 1559 1559 1559 1559 1559 1558 1557 1557 1556
1548 1550 1552 1555 1557 1559 1561 1562 1563 1564 1564 1565 1566 1566 1566 1567 1567 1567 1567 1566 1566 1566 1565 1565 1564 1563 1563 1562 1562 1561 1560 1560 1560 1560 1560 1559 1559 1560 1559 1558 1558 1557 1556
1546 1548 1550 1553 1555 1557 1559 1561 1562 1563 1563 1564 1565 1565 1566 1566 1566 1567 1566 1566 1566 1566 1565 1565 1564 1564 1563 1563 1562 1562 1561 1561 1561 1561 1560 1560 1559 1560 1559 1559 1558 1557 1557
1545 1547 1549 1551 1554 1556 1558 1559 1561 1562 1562 1563 1564 1564 1565 1566 1566 1566 1566 1566 1566 1566 1566 1565 1565 1564 1564 1563 1563 1562 1562 1562 1562 1561 1561 1560 1560 1561 1560 1559 1558 1557 1557
1543 1545 1547 1550 1552 1554 1556 1558 1559 1560 1561 1562 1563 1563 1564 1565 1565 1565 1566 1566 1566 1566 1566 1565 1565 1565 1564 1564 1563 1563 1563 1563 1562 1562 1561 1560 1560 1560 1560 1559 1558 1557 1556
1542 1543 1545 1548 1550 1552 1554 1556 1557 1559 1560 1561 1562 1562 1563 1564 1564 1565 1565 1565 1565 1566 1566 1565 1565 1565 1565 1564 1564 1563 1563 1563 1562 1562 1561 1561 1560 1560 1559 1558 1558 1557 1556
1540 1542 1544 1545 1548 1550 1552 1554 1556 1557 1558 1559 1560 1561 1562 1563 1563 1564 1564 1564 1565 1565 1565 1565 1565 1565 1565 1564 1564 1563 1563 1563 1562 1562 1561 1560 1560 1560 1559 1558 1557 1557 1556
1538 1540 1541 1543 1545 1547 1549 1551 1553 1555 1557 1558 1559 1560 1561 1561 1562 1563 1563 1563 1564 1564 1564 1564 1564 1564 1564 1564 1564 1563 1563 1562 1562 1561 1561 1560 1559 1559 1558 1557 1557 1556 1555
1535 1536 1538 1540 1542 1544 1546 1549 1551 1553 1554 1556 1557 1558 1559 1560 1561 1561 1562 1562 1563 1563 1563 1563 1563 1563 1563 1563 1563 1563 1562 1562 1561 1561 1560 1559 1559 1558 1557 1556 1555 1555 1554
1529 1531 1534 1536 1538 1541 1543 1545 1547 1549 1551 1553 1554 1555 1557 1558 1559 1560 1560 1561 1561 1561 1561 1562 1562 1562 1562 1562 1562 1562 1561 1561 1560 1560 1559 1558 1557 1557 1556 1555 1554 1553 1552
1526 1528 1530 1532 1535 1537 1539 1542 1544 1546 1548 1549 1551 1553 1554 1556 1556 1557 1558 1559 1559 1559 1560 1560 1560 1560 1560 1560 1560 1560 1559 1559 1559 1558 1557 1557 1556 1555 1554 1553 1552 1551 1550
1522 1523 1526 1528 1531 1533 1536 1538 1540 1542 1543 1545 1548 1550 1551 1553 1553 1554 1555 1556 1557 1557 1558 1558 1558 1557 1557 1557 1557 1557 1557 1557 1556 1556 1555 1555 1554 1553 1552 1551 1550 1549 1548
1517 1519 1521 1524 1526 1529 1531 1533 1536 1537 1539 1542 1544 1546 1548 1549 1550 1552 1553 1554 1554 1555 1555 1555 1555 1555 1555 1554 1554 1554 1554 1553 1553 1553 1552 1552 1551 1550 1549 1549 1547 1547 1545
1512 1514 1516 1518 1521 1524 1526 1528 1530 1533 1535 1538 1539 1542 1544 1545 1547 1548 1549 1550 1551 1551 1552 1552 1552 1552 1551 1551 1550 1550 1550 1550 1549 1549 1549 1548 1547 1547 1546 1545 1544 1543 1542
1507 1509 1511 1514 1517 1519 1521 1523 1526 1528 1531 1532 1534 1537 1539 1541 1542 1544 1545 1546 1547 1548 1548 1548 1548 1548 1547 1547 1546 1546 1546 1545 1545 1544 1544 1544 1543 1542 1542 1541 1540 1539 1538
1504 1506 1508 1510 1512 1514 1516 1519 1521 1523 1525 1527 1529 1531 1533 1535 1537 1539 1539 1540 1543 1544 1543 1543 1543 1543 1543 1542 1542 1542 1541 1540 1539 1539 1538 1538 1538 1537 1537 1536 1535 1535 1534
1499 1502 1505 1507 1508 1510 1512 1515 1517 1518 1520 1521 1523 1525 1527 1529 1531 1532 1533 1535 1537 1537 1537 1538 1537 1537 1537 1537 1537 1536 1535 1534 1533 1532 1531 1531 1531 1531 1531 1531 1530 1529 1529
1496 1499 1501 1503 1505 1507 1510 1512 1513 1514 1514 1515 1517 1518 1520 1522 1524 1526 1526 1528 1529 1530 1530 1530 1530 1531 1531 1531 1530 1528 1527 1526 1525 1524 1524 1524 1524 1524 1524 1524 1524 1523 1522
1494 1496 1498 1500 1502 1504 1505 1506 1507 1507 1508 1509 1510 1512 1514 1515 1516 1518 1519 1520 1521 1521 1522 1523 1523 1523 1523 1524 1523 1519 1517 1516 1515 1514 1515 1515 1515 1515 1516 1516 1516 1516 1516
1494 1495 1496 1497 1499 1500 1501 1502 1503 1504 1504 1505 1506 1506 1507 1508 1509 1510 1511 1511 1512 1513 1513 1514 1515 1514 1514 1516 1515 1513 1509 1505 1502 1504 1504 1504 1505 1506 1506 1507 1508 1508 1509
1494 1494 1494 1495 1496 1497 1498 1499 1499 1500 1499 1499 1499 1500 1500 1501 1502 1502 1502 1503 1503 1503 1503 1504 1505 1506 1505 1506 1506 1507 1504 1497 1495 1492 1492 1493 1495 1496 1497 1499 1499 1500 1501
1494 1494 1493 1493 1494 1494 1496 1496 1495 1494 1493 1492 1494 1494 1494 1494 1494 1493 1494 1494 1493 1493 1493 1494 1495 1495 1496 1495 1495 1494 1494 1494 1493 1486 1484 1484 1485 1486 1488 1490 1491 1492 1493
1495 1494 1493 1492 1492 1492 1493 1492 1492 1490 1489 1488 1488 1487 1486 1486 1485 1485 1484 1484 1483 1483 1482 1483 1484 1483 1483 1483 1483 1483 1483 1483 1482 1481 1475 1474 1475 1475 1478 1481 1482 1483 1484
1496 1495 1494 1493 1492 1491 1490 1490 1488 1487 1485 1484 1482 1480 1479 1478 1477 1475 1475 1474 1473 1472 1471 1471 1472 1472 1471 1470 1471 1471 1471 1470 1468 1469 1468 1464 1464 1465 1469 1470 1471 1473 1475